Tracking 19415 objects as of 15-Dec-2018
HD Live streaming from Space Station
objects crossing your sky now

OV3-3

Track OV3-3 now!
10-day predictions
OV3-3 is classified as:


NORAD ID: 2389
Int'l Code: 1966-070A
Perigee: 346.7 km
Apogee: 2,250.4 km
Inclination: 81.4 °
Period: 111.4 minutes
Semi major axis: 7669 km
RCS: 0.7052 m2 (medium)
Launch date: August 4, 1966
Source: United States (US)
Launch site: AIR FORCE WESTERN TEST RANGE (AFWTR)
aabbcc
Your satellite tracking list
Your tracking list is empty




NASA's NSSDC Master Catalog

Two Line Element Set (TLE):
1  2389U 66070A   18349.20460139  .00001140  00000-0  60434-4 0  9998
2  2389  81.3884  87.2831 1241075  48.8293 321.3369 12.92540829240295
Source of the keplerian elements: AFSPC